237P/LINEAR (2023)

Japanese version
Home page
Updated on November 14, 2023

---------------------------------------------------------------------

* Profile

* Pictures

* Orbital Elements

Epoch 2023 Sept. 13.0 TT = JDT 2460200.5
T 2023 May 14.69010 TT                                  Rudenko
q   1.9870777            (2000.0)            P               Q
n   0.14986540     Peri.   25.26633     -0.00062501     +0.97546602
a   3.5102264      Node   245.35971     -0.95368781     -0.06680179
e   0.4339175      Incl.   14.01662     -0.30079757     +0.20977024
P   6.58
>From 2046 observations 2002 June 18-2023 Sept. 27, mean residual 0".7.

* Finding Charts

* Magnitudes Graph

        H = 15.0  G = 0.15                       [    ,-360]  (             - 2022 May  19)
        m1 = 3.0 + 5 log d + 30.0 log r(t - 20)  [-360, 390]  (2022 May  19 - 2024 June  7)
        H = 15.0  G = 0.15                       [ 390,    ]  (2024 June  7 -             )

---------------------------------------------------------------------

The orbital elements are published on M.P.E.C. 2023-S260.
The charts are made with StellaNavigator Ver.10 (AstroArts).
The magnitudes graphs are made with Comet for Windows.

---------------------------------------------------------------------

Copyright(C) Seiichi Yoshida (comet@aerith.net). All rights reserved.